Time,TemperatureF,DewpointF,PressureIn,WindDirection,WindDirectionDegrees,WindSpeedMPH,WindSpeedGustMPH,Humidity,HourlyPrecipIn,Conditions,Clouds,dailyrainin,SoftwareType,DateUTC
2013-06-26 01:33:00,69.0,65.0,29.77,WSW,240,14.0,17.0,86,-99.99,,,-99.99,,2013-06-26 05:33:00,
2013-06-26 01:43:00,69.0,65.0,29.77,WSW,250,15.0,16.0,87,-99.99,,,-99.99,,2013-06-26 05:43:00,
2013-06-26 01:52:00,72.0,66.0,29.76,West,270,10.0,12.0,83,-99.99,,,-99.99,,2013-06-26 05:52:00,
2013-06-26 02:01:00,72.0,66.0,29.76,West,270,10.0,12.0,83,-99.99,,,-99.99,,2013-06-26 06:01:00,
2013-06-26 02:11:00,72.0,66.0,29.76,West,270,10.0,12.0,83,-99.99,,,-99.99,,2013-06-26 06:11:00,
2013-06-26 02:22:00,72.0,67.0,29.75,West,270,6.0,8.0,82,-99.99,,,-99.99,,2013-06-26 06:22:00,
2013-06-26 02:34:00,69.0,65.0,29.75,West,270,13.0,14.0,87,-99.99,,,-99.99,,2013-06-26 06:34:00,
2013-06-26 02:43:00,72.0,67.0,29.75,WNW,300,5.0,9.0,84,-99.99,,,-99.99,,2013-06-26 06:43:00,
2013-06-26 02:53:00,72.0,67.0,29.75,North,0,0.0,1.0,84,-99.99,,,-99.99,,2013-06-26 06:53:00,
2013-06-26 03:01:00,72.0,67.0,29.75,North,0,0.0,1.0,84,-99.99,,,-99.99,,2013-06-26 07:01:00,
2013-06-26 03:11:00,70.0,66.0,29.75,SW,220,5.0,10.0,86,-99.99,,,-99.99,,2013-06-26 07:11:00,
2013-06-26 03:21:00,70.0,66.0,29.75,SW,220,5.0,10.0,86,-99.99,,,-99.99,,2013-06-26 07:21:00,
2013-06-26 03:33:00,70.0,66.0,29.75,SW,220,5.0,10.0,86,-99.99,,,-99.99,,2013-06-26 07:33:00,
2013-06-26 03:42:00,68.0,65.0,29.74,WSW,240,5.0,8.0,87,-99.99,,,-99.99,,2013-06-26 07:42:00,
2013-06-26 03:53:00,69.0,65.0,29.74,SW,220,8.0,12.0,86,-99.99,,,-99.99,,2013-06-26 07:53:00,
2013-06-26 04:01:00,69.0,65.0,29.74,SW,220,8.0,12.0,86,-99.99,,,-99.99,,2013-06-26 08:01:00,
2013-06-26 04:11:00,69.0,65.0,29.74,WSW,250,8.0,12.0,88,-99.99,,,-99.99,,2013-06-26 08:11:00,
2013-06-26 04:22:00,69.0,65.0,29.74,WSW,250,8.0,12.0,88,-99.99,,,-99.99,,2013-06-26 08:22:00,
2013-06-26 04:33:00,69.0,65.0,29.75,West,260,8.0,8.0,87,-99.99,,,-99.99,,2013-06-26 08:33:00,
2013-06-26 04:42:00,70.0,66.0,29.74,North,0,0.0,2.0,87,-99.99,,,-99.99,,2013-06-26 08:42:00,
2013-06-26 04:52:00,69.0,65.0,29.75,SW,230,9.0,12.0,86,-99.99,,,-99.99,,2013-06-26 08:52:00,
2013-06-26 05:01:00,69.0,65.0,29.75,SW,230,9.0,12.0,86,-99.99,,,-99.99,,2013-06-26 09:01:00,
2013-06-26 05:11:00,69.0,65.0,29.75,SW,230,9.0,12.0,86,-99.99,,,-99.99,,2013-06-26 09:11:00,
2013-06-26 05:43:00,69.0,65.0,29.75,WSW,240,8.0,10.0,87,-99.99,,,-99.99,,2013-06-26 09:43:00,
2013-06-26 06:01:00,69.0,65.0,29.75,West,270,8.0,9.0,87,-99.99,,,-99.99,,2013-06-26 10:01:00,
2013-06-26 06:12:00,69.0,65.0,29.75,West,270,8.0,9.0,87,-99.99,,,-99.99,,2013-06-26 10:12:00,
2013-06-26 06:22:00,69.0,65.0,29.76,North,0,0.0,1.0,87,-99.99,,,-99.99,,2013-06-26 10:22:00,
2013-06-26 06:43:00,72.0,67.0,29.75,WNW,300,5.0,7.0,84,-99.99,,,-99.99,,2013-06-26 10:43:00,
2013-06-26 07:02:00,72.0,67.0,29.75,North,0,0.0,2.0,83,-99.99,,,-99.99,,2013-06-26 11:02:00,
2013-06-26 07:11:00,72.0,67.0,29.75,North,0,0.0,2.0,83,-99.99,,,-99.99,,2013-06-26 11:11:00,
2013-06-26 07:22:00,72.0,67.0,29.75,North,0,0.0,1.0,82,-99.99,,,-99.99,,2013-06-26 11:22:00,
2013-06-26 07:32:00,72.0,67.0,29.76,WSW,250,9.0,9.0,81,-99.99,,,-99.99,,2013-06-26 11:32:00,
2013-06-26 08:02:00,71.0,66.0,29.78,WSW,250,7.0,8.0,84,-99.99,,,-99.99,,2013-06-26 12:02:00,
2013-06-26 08:11:00,71.0,66.0,29.78,WSW,250,7.0,8.0,84,-99.99,,,-99.99,,2013-06-26 12:11:00,
2013-06-26 08:33:00,71.0,66.0,29.77,WSW,250,9.0,10.0,84,-99.99,,,-99.99,,2013-06-26 12:33:00,
2013-06-26 08:52:00,69.0,65.0,29.78,West,260,14.0,15.0,86,-99.99,,,-99.99,,2013-06-26 12:52:00,
2013-06-26 09:02:00,69.0,65.0,29.78,West,260,14.0,15.0,86,-99.99,,,-99.99,,2013-06-26 13:02:00,
2013-06-26 09:11:00,69.0,65.0,29.78,West,260,14.0,15.0,86,-99.99,,,-99.99,,2013-06-26 13:11:00,
2013-06-26 09:22:00,71.0,66.0,29.78,WSW,250,12.0,13.0,84,-99.99,,,-99.99,,2013-06-26 13:22:00,
2013-06-26 09:34:00,71.0,66.0,29.78,WSW,250,12.0,13.0,84,-99.99,,,-99.99,,2013-06-26 13:34:00,
2013-06-26 09:42:00,70.0,66.0,29.78,WSW,250,15.0,16.0,86,-99.99,,,-99.99,,2013-06-26 13:42:00,
2013-06-26 10:02:00,69.0,65.0,29.78,WSW,250,17.0,18.0,87,-99.99,,,-99.99,,2013-06-26 14:02:00,
2013-06-26 10:11:00,69.0,65.0,29.78,WSW,250,17.0,18.0,87,-99.99,,,-99.99,,2013-06-26 14:11:00,
2013-06-26 10:23:00,69.0,65.0,29.78,WSW,250,16.0,17.0,88,-99.99,,,-99.99,,2013-06-26 14:23:00,
2013-06-26 10:52:00,70.0,65.0,29.78,WSW,240,15.0,16.0,85,-99.99,,,-99.99,,2013-06-26 14:52:00,
2013-06-26 11:02:00,70.0,65.0,29.78,WSW,240,15.0,16.0,85,-99.99,,,-99.99,,2013-06-26 15:02:00,
2013-06-26 11:53:00,69.0,65.0,29.78,WSW,250,14.0,16.0,86,-99.99,,,-99.99,,2013-06-26 15:53:00,
2013-06-26 12:11:00,69.0,65.0,29.78,WSW,250,14.0,16.0,86,-99.99,,,-99.99,,2013-06-26 16:11:00,
2013-06-26 12:22:00,69.0,65.0,29.78,WSW,250,15.0,16.0,86,-99.99,,,-99.99,,2013-06-26 16:22:00,
2013-06-26 12:34:00,69.0,65.0,29.78,WSW,250,15.0,16.0,86,-99.99,,,-99.99,,2013-06-26 16:34:00,
2013-06-26 12:43:00,69.0,64.0,29.79,WSW,250,14.0,15.0,84,-99.99,,,-99.99,,2013-06-26 16:43:00,
2013-06-26 12:52:00,69.0,64.0,29.79,WSW,250,14.0,15.0,84,-99.99,,,-99.99,,2013-06-26 16:52:00,
2013-06-26 13:01:00,70.0,65.0,29.79,West,260,18.0,20.0,85,-99.99,,,-99.99,,2013-06-26 17:01:00,
2013-06-26 13:11:00,70.0,65.0,29.79,West,260,18.0,20.0,85,-99.99,,,-99.99,,2013-06-26 17:11:00,
2013-06-26 13:23:00,70.0,65.0,29.79,West,260,18.0,22.0,84,-99.99,,,-99.99,,2013-06-26 17:23:00,
2013-06-26 13:33:00,70.0,65.0,29.79,West,260,18.0,22.0,84,-99.99,,,-99.99,,2013-06-26 17:33:00,
2013-06-26 13:43:00,73.0,65.0,29.79,West,260,18.0,22.0,76,-99.99,,,-99.99,,2013-06-26 17:43:00,
2013-06-26 13:52:00,73.0,65.0,29.79,West,260,18.0,22.0,76,-99.99,,,-99.99,,2013-06-26 17:52:00,
2013-06-26 14:01:00,72.0,65.0,29.78,West,260,18.0,20.0,79,-99.99,,,-99.99,,2013-06-26 18:01:00,
2013-06-26 14:11:00,72.0,65.0,29.78,West,260,18.0,20.0,79,-99.99,,,-99.99,,2013-06-26 18:11:00,
2013-06-26 14:22:00,74.0,65.0,29.77,West,260,21.0,24.0,73,-99.99,,,-99.99,,2013-06-26 18:22:00,
2013-06-26 14:34:00,73.0,65.0,29.77,West,260,21.0,24.0,77,-99.99,,,-99.99,,2013-06-26 18:34:00,
2013-06-26 14:42:00,76.0,66.0,29.78,West,270,21.0,24.0,71,-99.99,,,-99.99,,2013-06-26 18:42:00,
2013-06-26 14:52:00,76.0,66.0,29.78,West,270,21.0,24.0,71,-99.99,,,-99.99,,2013-06-26 18:52:00,
2013-06-26 15:01:00,77.0,66.0,29.78,West,260,18.0,23.0,68,-99.99,,,-99.99,,2013-06-26 19:01:00,
2013-06-26 15:11:00,77.0,66.0,29.78,West,260,18.0,23.0,68,-99.99,,,-99.99,,2013-06-26 19:11:00,
2013-06-26 15:22:00,74.0,65.0,29.78,West,260,17.0,18.0,73,-99.99,,,-99.99,,2013-06-26 19:22:00,
2013-06-26 15:32:00,74.0,65.0,29.78,West,260,17.0,18.0,73,-99.99,,,-99.99,,2013-06-26 19:32:00,
2013-06-26 15:42:00,75.0,66.0,29.78,West,260,15.0,17.0,75,-99.99,,,-99.99,,2013-06-26 19:42:00,
2013-06-26 15:52:00,75.0,66.0,29.78,West,260,15.0,17.0,75,-99.99,,,-99.99,,2013-06-26 19:52:00,
2013-06-26 16:12:00,71.0,65.0,29.77,WSW,250,17.0,18.0,81,-99.99,,,-99.99,,2013-06-26 20:12:00,
2013-06-26 16:22:00,71.0,65.0,29.77,West,260,17.0,18.0,81,-99.99,,,-99.99,,2013-06-26 20:22:00,
2013-06-26 16:33:00,71.0,65.0,29.77,West,260,17.0,18.0,81,-99.99,,,-99.99,,2013-06-26 20:33:00,
2013-06-26 16:43:00,75.0,66.0,29.77,West,260,12.0,18.0,74,-99.99,,,-99.99,,2013-06-26 20:43:00,
2013-06-26 16:52:00,72.0,65.0,29.77,WSW,250,17.0,18.0,78,-99.99,,,-99.99,,2013-06-26 20:52:00,
2013-06-26 17:01:00,72.0,65.0,29.77,WSW,250,17.0,18.0,78,-99.99,,,-99.99,,2013-06-26 21:01:00,
2013-06-26 17:11:00,72.0,65.0,29.77,WSW,250,17.0,18.0,78,-99.99,,,-99.99,,2013-06-26 21:11:00,
2013-06-26 17:23:00,71.0,65.0,29.77,West,260,16.0,17.0,81,-99.99,,,-99.99,,2013-06-26 21:23:00,
2013-06-26 17:33:00,73.0,66.0,29.77,West,260,18.0,20.0,78,-99.99,,,-99.99,,2013-06-26 21:33:00,
2013-06-26 17:42:00,73.0,66.0,29.77,West,260,18.0,20.0,78,-99.99,,,-99.99,,2013-06-26 21:42:00,
2013-06-26 17:52:00,76.0,67.0,29.77,West,270,14.0,17.0,73,-99.99,,,-99.99,,2013-06-26 21:52:00,
2013-06-26 18:01:00,76.0,67.0,29.77,West,270,14.0,17.0,73,-99.99,,,-99.99,,2013-06-26 22:01:00,
2013-06-26 18:11:00,76.0,67.0,29.77,West,270,14.0,17.0,73,-99.99,,,-99.99,,2013-06-26 22:11:00,
2013-06-26 18:21:00,77.0,67.0,29.77,West,270,15.0,16.0,70,-99.99,,,-99.99,,2013-06-26 22:21:00,
2013-06-26 18:43:00,78.0,67.0,29.77,West,270,12.0,13.0,69,-99.99,,,-99.99,,2013-06-26 22:43:00,
2013-06-26 18:52:00,78.0,67.0,29.77,West,270,12.0,13.0,69,-99.99,,,-99.99,,2013-06-26 22:52:00,
2013-06-26 19:01:00,77.0,67.0,29.78,West,270,12.0,14.0,70,-99.99,,,-99.99,,2013-06-26 23:01:00,
2013-06-26 19:11:00,77.0,67.0,29.78,West,270,12.0,14.0,70,-99.99,,,-99.99,,2013-06-26 23:11:00,
2013-06-26 19:22:00,78.0,67.0,29.78,West,270,10.0,12.0,70,-99.99,,,-99.99,,2013-06-26 23:22:00,
2013-06-26 19:30:00,79.0,69.0,29.80,WNW,290,7.0,8.0,71,-99.99,,,-99.99,,2013-06-26 23:30:00,
2013-06-26 19:33:00,78.0,68.0,29.79,WNW,290,8.0,9.0,70,-99.99,,,-99.99,,2013-06-26 23:33:00,
2013-06-26 19:43:00,78.0,68.0,29.80,WNW,300,8.0,9.0,70,-99.99,,,-99.99,,2013-06-26 23:43:00,
2013-06-26 19:52:00,79.0,69.0,29.80,WNW,290,7.0,8.0,71,-99.99,,,-99.99,,2013-06-26 23:52:00,
2013-06-26 20:01:00,79.0,69.0,29.80,WNW,290,7.0,8.0,71,-99.99,,,-99.99,,2013-06-27 00:01:00,
2013-06-26 20:11:00,79.0,69.0,29.80,WNW,290,7.0,8.0,71,-99.99,,,-99.99,,2013-06-27 00:11:00,
2013-06-26 20:22:00,79.0,69.0,29.80,WNW,290,7.0,8.0,71,-99.99,,,-99.99,,2013-06-27 00:22:00,